KB0PYS Weather Reports


Display with metric or nautical units.
time (UTC)temp
F
wind
direction
speed
MPH
gust
MPH
rain 1hr
in
rain 24hr
in
rain mn
in
humidity
%
barometer
mb
20260504231535 51 0 0.0 6.0 0.00 0.00 0.00 55 1013.3
20260504230030 50 0 0.0 8.0 0.00 0.00 0.00 57 1013.3
20260504224535 50 0 0.0 9.0 0.00 0.00 0.00 56 1013.3
20260504223029 50 0 0.0 10.0 0.00 0.00 0.00 56 1013.1
20260504221538 51 0 0.0 5.0 0.00 0.00 0.00 54 1013.4
20260504220032 51 0 1.0 10.0 0.00 0.00 0.00 52 1012.8
20260504214531 53 0 0.0 11.0 0.00 0.00 0.00 46 1012.8
20260504213039 55 0 0.0 2.0 0.00 0.00 0.00 42 1012.3
20260504211534 55 0 0.0 6.0 0.00 0.00 0.00 45 1012.2
20260504210029 53 0 0.0 0.0 0.00 0.00 0.00 46 1012.8
20260504204534 53 0 0.0 6.0 0.00 0.00 0.00 46 1013.0
20260504203034 54 0 0.0 2.0 0.00 0.00 0.00 44 1013.3
20260504201530 54 0 0.0 0.0 0.00 0.00 0.00 43 1013.4
20260504200032 55 0 0.0 4.0 0.00 0.00 0.00 41 1013.5
20260504194530 57 0 0.0 15.0 0.00 0.00 0.00 37 1013.4
20260504193030 57 0 1.0 16.0 0.00 0.00 0.00 40 1013.2
20260504191554 57 0 0.0 8.0 0.00 0.00 0.00 40 1013.3
20260504190034 56 0 0.0 7.0 0.00 0.00 0.00 42 1013.4
20260504184541 56 0 0.0 4.0 0.00 0.00 0.00 38 1013.7
20260504183031 56 0 0.0 0.0 0.00 0.00 0.00 37 1013.7
20260504181528 55 0 0.0 1.0 0.00 0.00 0.00 39 1013.9
20260504180034 55 0 0.0 14.0 0.00 0.00 0.00 39 1014.0
20260504174530 54 281 3.0 13.0 0.00 0.00 0.00 38 1013.9
20260504173029 54 0 0.0 14.0 0.00 0.00 0.00 39 1013.9
20260504171529 54 0 2.0 19.0 0.00 0.00 0.00 39 1014.3
20260504081545 31 0 0.0 7.0 0.00 0.00 0.00 64 1015.4
20260504044535 38 0 0.0 0.0 0.00 0.00 0.00 57 1017.0
20260504043036 39 0 0.0 1.0 0.00 0.00 0.00 56 1017.1
20260504041531 39 0 0.0 0.0 0.00 0.00 0.00 55 1017.2
20260504040030 40 0 0.0 3.0 0.00 0.00 0.00 54 1017.2
20260504034530 42 0 0.0 0.0 0.00 0.00 0.00 52 1017.3
20260504033035 43 0 0.0 0.0 0.00 0.00 0.00 50 1017.2
20260504031531 44 0 0.0 0.0 0.00 0.00 0.00 48 1017.1
20260504030031 46 0 0.0 0.0 0.00 0.00 0.00 47 1017.1
20260504024540 47 0 0.0 0.0 0.00 0.00 0.00 45 1016.9
20260504023028 49 0 0.0 0.0 0.00 0.00 0.00 42 1016.6
20260504021532 51 0 0.0 0.0 0.00 0.00 0.00 41 1016.6
20260504020030 52 0 0.0 0.0 0.00 0.00 0.00 41 1016.4
20260504014530 54 0 0.0 0.0 0.00 0.00 0.00 36 1016.3
20260504013036 55 0 0.0 0.0 0.00 0.00 0.00 36 1016.2
20260504011530 56 0 0.0 0.0 0.00 0.00 0.00 34 1016.3
20260504010030 56 0 0.0 8.0 0.00 0.00 0.00 32 1016.3
20260504004530 56 0 0.0 10.0 0.00 0.00 0.00 31 1016.3
20260504003040 56 240 0.0 13.0 0.00 0.00 0.00 32 1016.7
20260504001529 57 348 5.0 16.0 0.00 0.00 0.00 30 1016.8
20260504000032 57 0 0.0 8.0 0.00 0.00 0.00 30 1016.8
20260503234530 57 0 0.0 15.0 0.00 0.00 0.00 31 1017.1
20260503233037 57 0 0.0 14.0 0.00 0.00 0.00 30 1017.0